| time (UTC) | temp C | wind direction | speed KPH | gust KPH | rain 1hr cm | rain 24hr cm | rain mn cm | humidity % | barometer mb |
| 20260505153034 | 23 | 99 | 6.4 | 0.0 | 0.00 | 0.00 | 0.00 | 44 | 1009.4 |
| 20260505151631 | 23 | 127 | 4.8 | 0.0 | 0.00 | 0.00 | 0.00 | 47 | 1009.8 |
| 20260505124505 | 18 | 126 | 11.3 | 0.0 | 0.00 | 0.00 | 0.00 | 62 | 1010.1 |
| 20260505123110 | 17 | 119 | 9.7 | 0.0 | 0.00 | 0.00 | 0.00 | 61 | 1010.0 |
| 20260505121557 | 17 | 135 | 8.0 | 0.0 | 0.00 | 0.00 | 0.00 | 62 | 1010.0 |
| 20260505120108 | 17 | 165 | 8.0 | 0.0 | 0.00 | 0.00 | 0.00 | 64 | 1010.0 |
| 20260505114550 | 16 | 110 | 6.4 | 0.0 | 0.00 | 0.00 | 0.00 | 66 | 1010.2 |
| 20260505113051 | 16 | 155 | 6.4 | 0.0 | 0.00 | 0.00 | 0.00 | 69 | 1010.2 |
| 20260505111542 | 15 | 140 | 1.6 | 0.0 | 0.00 | 0.00 | 0.00 | 70 | 1010.1 |
| 20260505101526 | 13 | 174 | 3.2 | 0.0 | 0.00 | 0.00 | 0.00 | 76 | 1009.8 |
| 20260505100030 | 13 | 174 | 1.6 | 0.0 | 0.00 | 0.00 | 0.00 | 76 | 1009.2 |
| 20260505094526 | 13 | 141 | 1.6 | 0.0 | 0.00 | 0.00 | 0.00 | 76 | 1009.1 |
| 20260505093026 | 13 | 127 | 3.2 | 0.0 | 0.00 | 0.00 | 0.00 | 77 | 1008.9 |
| 20260505091524 | 13 | 126 | 1.6 | 0.0 | 0.00 | 0.00 | 0.00 | 77 | 1009.1 |
| 20260505090024 | 13 | 126 | 3.2 | 0.0 | 0.00 | 0.00 | 0.00 | 77 | 1009.1 |
| 20260505084526 | 12 | 82 | 3.2 | 0.0 | 0.00 | 0.00 | 0.00 | 77 | 1009.0 |
| 20260505083023 | 12 | 123 | 4.8 | 0.0 | 0.00 | 0.00 | 0.00 | 78 | 1009.2 |
| 20260505081531 | 12 | 131 | 0.0 | 0.0 | 0.00 | 0.00 | 0.00 | 77 | 1009.2 |
| 20260505080022 | 12 | 114 | 0.0 | 0.0 | 0.00 | 0.00 | 0.00 | 77 | 1009.2 |
| 20260505074521 | 12 | 114 | 0.0 | 0.0 | 0.00 | 0.00 | 0.00 | 75 | 1009.1 |
| 20260505073024 | 12 | 126 | 0.0 | 0.0 | 0.00 | 0.00 | 0.00 | 74 | 1009.0 |
| 20260505071539 | 12 | 127 | 0.0 | 0.0 | 0.00 | 0.00 | 0.00 | 71 | 1009.0 |
| 20260505070017 | 12 | 127 | 0.0 | 0.0 | 0.00 | 0.00 | 0.00 | 70 | 1009.1 |
| 20260505064521 | 13 | 127 | 0.0 | 0.0 | 0.00 | 0.00 | 0.00 | 68 | 1009.0 |
| 20260505063015 | 13 | 127 | 0.0 | 0.0 | 0.00 | 0.00 | 0.00 | 67 | 1009.2 |
| 20260505061512 | 14 | 127 | 1.6 | 0.0 | 0.00 | 0.00 | 0.00 | 66 | 1009.1 |
| 20260505060007 | 14 | 113 | 3.2 | 0.0 | 0.00 | 0.00 | 0.00 | 65 | 1009.1 |
| 20260505054504 | 14 | 134 | 3.2 | 0.0 | 0.00 | 0.00 | 0.00 | 65 | 1009.2 |
| 20260505053106 | 15 | 116 | 3.2 | 0.0 | 0.00 | 0.00 | 0.00 | 65 | 1009.3 |
| 20260505051555 | 15 | 97 | 3.2 | 0.0 | 0.00 | 0.00 | 0.00 | 64 | 1009.3 |
| 20260505041551 | 13 | 104 | 1.6 | 0.0 | 0.00 | 0.00 | 0.00 | 65 | 1009.7 |
| 20260505040045 | 13 | 75 | 0.0 | 0.0 | 0.00 | 0.00 | 0.00 | 65 | 1009.7 |
| 20260505034544 | 14 | 79 | 0.0 | 0.0 | 0.00 | 0.00 | 0.00 | 64 | 1009.8 |
| 20260505033047 | 14 | 76 | 1.6 | 0.0 | 0.00 | 0.00 | 0.00 | 62 | 1009.9 |
| 20260505031544 | 15 | 104 | 1.6 | 0.0 | 0.00 | 0.00 | 0.00 | 61 | 1010.0 |
| 20260505030045 | 15 | 96 | 1.6 | 0.0 | 0.00 | 0.00 | 0.00 | 59 | 1009.9 |
| 20260505024546 | 15 | 110 | 1.6 | 0.0 | 0.00 | 0.00 | 0.00 | 58 | 1010.0 |
| 20260505023050 | 15 | 73 | 1.6 | 0.0 | 0.00 | 0.00 | 0.00 | 57 | 1010.0 |
| 20260505021544 | 15 | 59 | 3.2 | 0.0 | 0.00 | 0.00 | 0.00 | 57 | 1010.2 |
| 20260505020044 | 16 | 65 | 3.2 | 0.0 | 0.00 | 0.00 | 0.00 | 56 | 1009.9 |
| 20260505014544 | 16 | 51 | 4.8 | 0.0 | 0.00 | 0.00 | 0.00 | 55 | 1010.0 |
| 20260505013043 | 16 | 52 | 4.8 | 0.0 | 0.00 | 0.00 | 0.00 | 54 | 1009.7 |
| 20260505011550 | 16 | 58 | 4.8 | 0.0 | 0.00 | 0.00 | 0.00 | 53 | 1009.5 |
| 20260505010047 | 17 | 42 | 4.8 | 0.0 | 0.00 | 0.00 | 0.00 | 50 | 1009.3 |
| 20260505004542 | 18 | 72 | 1.6 | 0.0 | 0.00 | 0.00 | 0.00 | 42 | 1009.1 |
| 20260505003041 | 18 | 116 | 3.2 | 0.0 | 0.00 | 0.00 | 0.00 | 38 | 1008.8 |
| 20260505001541 | 19 | 144 | 4.8 | 0.0 | 0.00 | 0.00 | 0.00 | 36 | 1008.6 |
| 20260505000041 | 20 | 114 | 8.0 | 0.0 | 0.00 | 0.00 | 0.00 | 35 | 1008.5 |
| 20260504234542 | 20 | 106 | 4.8 | 0.0 | 0.00 | 0.00 | 0.00 | 34 | 1008.2 |
| 20260504233043 | 20 | 137 | 9.7 | 0.0 | 0.00 | 0.00 | 0.00 | 33 | 1008.2 |
| 20260504231541 | 21 | 131 | 8.0 | 0.0 | 0.00 | 0.00 | 0.00 | 31 | 1008.0 |
| 20260504230039 | 21 | 141 | 8.0 | 0.0 | 0.00 | 0.00 | 0.00 | 29 | 1007.9 |
| 20260504224538 | 22 | 150 | 11.3 | 0.0 | 0.00 | 0.00 | 0.00 | 27 | 1007.9 |
| 20260504223038 | 22 | 185 | 11.3 | 0.0 | 0.00 | 0.00 | 0.00 | 28 | 1008.0 |
| 20260504221538 | 22 | 167 | 8.0 | 0.0 | 0.00 | 0.00 | 0.00 | 28 | 1008.2 |
| 20260504220043 | 23 | 133 | 8.0 | 0.0 | 0.00 | 0.00 | 0.00 | 27 | 1008.2 |
| 20260504214547 | 23 | 134 | 9.7 | 0.0 | 0.00 | 0.00 | 0.00 | 27 | 1008.3 |
| 20260504213047 | 23 | 152 | 11.3 | 0.0 | 0.00 | 0.00 | 0.00 | 28 | 1008.4 |
| 20260504211537 | 23 | 199 | 11.3 | 0.0 | 0.00 | 0.00 | 0.00 | 27 | 1008.3 |
| 20260504210036 | 22 | 76 | 11.3 | 0.0 | 0.00 | 0.00 | 0.00 | 28 | 1008.3 |
| 20260504204535 | 22 | 141 | 9.7 | 0.0 | 0.00 | 0.00 | 0.00 | 28 | 1008.4 |
| 20260504203035 | 23 | 95 | 11.3 | 0.0 | 0.00 | 0.00 | 0.00 | 28 | 1008.3 |
| 20260504201534 | 23 | 137 | 12.9 | 0.0 | 0.00 | 0.00 | 0.00 | 27 | 1008.5 |
| 20260504200041 | 23 | 123 | 11.3 | 0.0 | 0.00 | 0.00 | 0.00 | 30 | 1008.6 |
| 20260504194538 | 23 | 152 | 9.7 | 0.0 | 0.00 | 0.00 | 0.00 | 28 | 1008.7 |
| 20260504193032 | 23 | 154 | 11.3 | 0.0 | 0.00 | 0.00 | 0.00 | 28 | 1008.8 |
| 20260504191548 | 23 | 124 | 11.3 | 0.0 | 0.00 | 0.00 | 0.00 | 27 | 1009.0 |
| 20260504190032 | 23 | 127 | 12.9 | 0.0 | 0.00 | 0.00 | 0.00 | 28 | 1009.3 |
| 20260504184535 | 23 | 128 | 12.9 | 0.0 | 0.00 | 0.00 | 0.00 | 30 | 1009.5 |
| 20260504183039 | 23 | 116 | 9.7 | 0.0 | 0.00 | 0.00 | 0.00 | 27 | 1009.6 |
| 20260504181528 | 22 | 140 | 9.7 | 0.0 | 0.00 | 0.00 | 0.00 | 27 | 1009.8 |
| 20260504180026 | 22 | 165 | 9.7 | 0.0 | 0.00 | 0.00 | 0.00 | 33 | 1010.2 |
| 20260504174525 | 22 | 89 | 12.9 | 0.0 | 0.00 | 0.00 | 0.00 | 30 | 1010.3 |
| 20260504173027 | 22 | 198 | 14.5 | 0.0 | 0.00 | 0.00 | 0.00 | 30 | 1010.4 |
| 20260504171523 | 21 | 185 | 9.7 | 0.0 | 0.00 | 0.00 | 0.00 | 32 | 1010.5 |